Location: Schommer Observatory
(40.5200°N, 74.4500°W)
Time: 03:36:52
(UTC-05:00)

N. Korean satellite - Pass Details

Date: 14 November 2017
Orbit: 460 x 515 km, 97.2° (Epoch: 17 November)

Event Time Altitude Azimuth Distance (km) Brightness Sun altitude
Rises 17:12:44 0° 137° (SE) 2,476 9.9 -6.5°
Reaches altitude 10° 17:15:03 10° 122° (ESE) 1,611 8.8 -6.9°
Maximum altitude 17:17:46 22° 70° (ENE) 1,071 7.7 -7.4°
Drops below altitude 10° 17:20:31 10° 18° (NNE) 1,637 8.9 -7.9°
Sets 17:22:54 0° 3° (N) 2,528 10.0 -8.3°
